| time (UTC) | temp F | wind direction | speed MPH | gust MPH | rain 1hr in | rain 24hr in | rain mn in | humidity % | barometer mb |
| 20260903143503 | 79 | 286 | 1.0 | 4.0 | 0.00 | 0.00 | 0.00 | 36 | 1026.7 |
| 20260903143011 | 79 | 51 | 0.0 | 4.0 | 0.00 | 0.00 | 0.00 | 32 | 1026.8 |
| 20260903142507 | 79 | 305 | 2.0 | 4.0 | 0.00 | 0.00 | 0.00 | 37 | 1026.8 |
| 20260903142007 | 78 | 349 | 0.0 | 4.0 | 0.00 | 0.00 | 0.00 | 39 | 1026.8 |
| 20260903141517 | 78 | 57 | 0.0 | 4.0 | 0.00 | 0.00 | 0.00 | 38 | 1026.8 |
| 20260903141010 | 78 | 53 | 1.0 | 4.0 | 0.00 | 0.00 | 0.00 | 37 | 1026.8 |
| 20260903140513 | 78 | 44 | 0.0 | 4.0 | 0.00 | 0.00 | 0.00 | 40 | 1026.8 |
| 20260903140022 | 78 | 91 | 1.0 | 3.0 | 0.00 | 0.00 | 0.00 | 40 | 1026.8 |
| 20260903135513 | 78 | 336 | 0.0 | 3.0 | 0.00 | 0.00 | 0.00 | 38 | 1026.8 |
| 20260903135012 | 78 | 302 | 1.0 | 2.0 | 0.00 | 0.00 | 0.00 | 39 | 1026.8 |
| 20260903134527 | 78 | 69 | 0.0 | 4.0 | 0.00 | 0.00 | 0.00 | 39 | 1026.8 |
| 20260903134015 | 78 | 60 | 0.0 | 4.0 | 0.00 | 0.00 | 0.00 | 42 | 1026.8 |
| 20260903133516 | 77 | 271 | 1.0 | 4.0 | 0.00 | 0.00 | 0.00 | 39 | 1026.8 |
| 20260903133033 | 77 | 82 | 0.0 | 5.0 | 0.00 | 0.00 | 0.00 | 40 | 1026.9 |
| 20260903132509 | 77 | 17 | 1.0 | 5.0 | 0.00 | 0.00 | 0.00 | 39 | 1026.9 |
| 20260903132007 | 77 | 274 | 2.0 | 4.0 | 0.00 | 0.00 | 0.00 | 42 | 1026.9 |
| 20260903131513 | 77 | 243 | 2.0 | 4.0 | 0.00 | 0.00 | 0.00 | 42 | 1026.9 |
| 20260903131006 | 77 | 109 | 1.0 | 3.0 | 0.00 | 0.00 | 0.00 | 42 | 1026.9 |
| 20260903130515 | 77 | 69 | 0.0 | 3.0 | 0.00 | 0.00 | 0.00 | 42 | 1026.9 |
| 20260903130018 | 77 | 75 | 1.0 | 4.0 | 0.00 | 0.00 | 0.00 | 42 | 1026.9 |
| 20260903125511 | 77 | 323 | 2.0 | 4.0 | 0.00 | 0.00 | 0.00 | 42 | 1026.9 |
| 20260903125014 | 77 | 328 | 1.0 | 3.0 | 0.00 | 0.00 | 0.00 | 41 | 1026.9 |
| 20260903124524 | 78 | 75 | 0.0 | 3.0 | 0.00 | 0.00 | 0.00 | 41 | 1027.0 |
| 20260903124011 | 77 | 40 | 0.0 | 3.0 | 0.00 | 0.00 | 0.00 | 40 | 1027.0 |
| 20260903123515 | 77 | 89 | 0.0 | 2.0 | 0.00 | 0.00 | 0.00 | 37 | 1027.0 |
| 20260903123033 | 77 | 68 | 1.0 | 3.0 | 0.00 | 0.00 | 0.00 | 36 | 1027.0 |
| 20260903122513 | 76 | 26 | 0.0 | 6.0 | 0.00 | 0.00 | 0.00 | 33 | 1027.0 |
| 20260903122016 | 76 | 309 | 0.0 | 6.0 | 0.00 | 0.00 | 0.00 | 32 | 1027.2 |
| 20260903121550 | 76 | 321 | 1.0 | 4.0 | 0.00 | 0.00 | 0.00 | 31 | 1027.2 |
| 20260903121016 | 76 | 340 | 1.0 | 4.0 | 0.00 | 0.00 | 0.00 | 30 | 1027.3 |
| 20260903120507 | 76 | 68 | 1.0 | 3.0 | 0.00 | 0.00 | 0.00 | 31 | 1027.3 |
| 20260903120014 | 76 | 334 | 1.0 | 4.0 | 0.00 | 0.00 | 0.00 | 30 | 1027.4 |
| 20260903115510 | 76 | 30 | 0.0 | 4.0 | 0.00 | 0.00 | 0.00 | 31 | 1027.4 |
| 20260903115009 | 76 | 31 | 0.0 | 4.0 | 0.00 | 0.00 | 0.00 | 29 | 1027.4 |
| 20260903114518 | 76 | 319 | 1.0 | 4.0 | 0.00 | 0.00 | 0.00 | 29 | 1027.4 |
| 20260903114014 | 76 | 335 | 0.0 | 3.0 | 0.00 | 0.00 | 0.00 | 29 | 1027.4 |
| 20260903113515 | 76 | 285 | 0.0 | 3.0 | 0.00 | 0.00 | 0.00 | 32 | 1027.4 |
| 20260903113028 | 75 | 44 | 1.0 | 3.0 | 0.00 | 0.00 | 0.00 | 32 | 1027.4 |
| 20260903112518 | 75 | 110 | 1.0 | 4.0 | 0.00 | 0.00 | 0.00 | 34 | 1027.4 |
| 20260903112012 | 75 | 75 | 0.0 | 4.0 | 0.00 | 0.00 | 0.00 | 34 | 1027.5 |
| 20260903111529 | 74 | 58 | 1.0 | 4.0 | 0.00 | 0.00 | 0.00 | 38 | 1027.6 |
| 20260903111017 | 74 | 55 | 1.0 | 3.0 | 0.00 | 0.00 | 0.00 | 36 | 1027.6 |
| 20260903110516 | 73 | 355 | 0.0 | 3.0 | 0.00 | 0.00 | 0.00 | 32 | 1027.7 |
| 20260903110032 | 73 | 285 | 0.0 | 3.0 | 0.00 | 0.00 | 0.00 | 32 | 1027.7 |
| 20260903105518 | 74 | 42 | 1.0 | 3.0 | 0.00 | 0.00 | 0.00 | 33 | 1027.7 |
| 20260903105016 | 73 | 113 | 0.0 | 3.0 | 0.00 | 0.00 | 0.00 | 27 | 1027.7 |
| 20260903104519 | 73 | 44 | 1.0 | 3.0 | 0.00 | 0.00 | 0.00 | 26 | 1027.7 |
| 20260903104009 | 73 | 317 | 0.0 | 3.0 | 0.00 | 0.00 | 0.00 | 34 | 1027.7 |
| 20260903103513 | 72 | 319 | 0.0 | 3.0 | 0.00 | 0.00 | 0.00 | 38 | 1027.7 |
| 20260903103022 | 72 | 88 | 1.0 | 3.0 | 0.00 | 0.00 | 0.00 | 44 | 1027.7 |
| 20260903102512 | 72 | 46 | 1.0 | 3.0 | 0.00 | 0.00 | 0.00 | 48 | 1027.7 |
| 20260903102017 | 71 | 68 | 1.0 | 3.0 | 0.00 | 0.00 | 0.00 | 48 | 1027.7 |
| 20260903101524 | 71 | 108 | 0.0 | 2.0 | 0.00 | 0.00 | 0.00 | 50 | 1027.7 |
| 20260903101016 | 71 | 65 | 0.0 | 2.0 | 0.00 | 0.00 | 0.00 | 54 | 1027.7 |
| 20260903100517 | 71 | 86 | 0.0 | 2.0 | 0.00 | 0.00 | 0.00 | 53 | 1027.7 |
| 20260903100040 | 70 | 355 | 0.0 | 4.0 | 0.00 | 0.00 | 0.00 | 54 | 1027.7 |
| 20260903095516 | 70 | 60 | 2.0 | 4.0 | 0.00 | 0.00 | 0.00 | 57 | 1027.7 |
| 20260903095017 | 70 | 70 | 1.0 | 4.0 | 0.00 | 0.00 | 0.00 | 56 | 1027.7 |
| 20260903094534 | 69 | 41 | 0.0 | 3.0 | 0.00 | 0.00 | 0.00 | 55 | 1027.7 |
| 20260903094021 | 69 | 98 | 1.0 | 3.0 | 0.00 | 0.00 | 0.00 | 59 | 1027.7 |
| 20260903093516 | 69 | 51 | 0.0 | 3.0 | 0.00 | 0.00 | 0.00 | 61 | 1027.8 |
| 20260903093036 | 69 | 71 | 0.0 | 2.0 | 0.00 | 0.00 | 0.00 | 59 | 1027.8 |
| 20260903092514 | 68 | 36 | 1.0 | 2.0 | 0.00 | 0.00 | 0.00 | 61 | 1027.7 |
| 20260903092009 | 68 | 34 | 1.0 | 3.0 | 0.00 | 0.00 | 0.00 | 63 | 1027.7 |
| 20260903091502 | 68 | 89 | 0.0 | 3.0 | 0.00 | 0.00 | 0.00 | 61 | 1027.7 |
| 20260903091003 | 68 | 71 | 1.0 | 2.0 | 0.00 | 0.00 | 0.00 | 64 | 1027.7 |
| 20260903090504 | 67 | 86 | 1.0 | 2.0 | 0.00 | 0.00 | 0.00 | 66 | 1027.7 |
| 20260903090004 | 67 | 77 | 1.0 | 2.0 | 0.00 | 0.00 | 0.00 | 68 | 1027.7 |
| 20260903085504 | 67 | 68 | 1.0 | 2.0 | 0.00 | 0.00 | 0.00 | 67 | 1027.7 |
| 20260903085003 | 67 | 83 | 0.0 | 2.0 | 0.00 | 0.00 | 0.00 | 69 | 1027.6 |
| 20260903084506 | 66 | 77 | 1.0 | 2.0 | 0.00 | 0.00 | 0.00 | 70 | 1027.6 |
| 20260903084001 | 66 | 77 | 0.0 | 2.0 | 0.00 | 0.00 | 0.00 | 69 | 1027.6 |
| 20260903083502 | 66 | 79 | 0.0 | 2.0 | 0.00 | 0.00 | 0.00 | 68 | 1027.6 |
| 20260903083008 | 67 | 78 | 0.0 | 2.0 | 0.00 | 0.00 | 0.00 | 68 | 1027.5 |
| 20260903082502 | 66 | 101 | 0.0 | 2.0 | 0.00 | 0.00 | 0.00 | 69 | 1027.5 |
| 20260903082004 | 66 | 100 | 1.0 | 2.0 | 0.00 | 0.00 | 0.00 | 69 | 1027.5 |
| 20260903081505 | 66 | 78 | 0.0 | 1.0 | 0.00 | 0.00 | 0.00 | 69 | 1027.5 |
| 20260903081003 | 66 | 77 | 0.0 | 1.0 | 0.00 | 0.00 | 0.00 | 68 | 1027.5 |
| 20260903080505 | 66 | 77 | 0.0 | 2.0 | 0.00 | 0.00 | 0.00 | 69 | 1027.5 |
| 20260903080004 | 65 | 71 | 1.0 | 2.0 | 0.00 | 0.00 | 0.00 | 70 | 1027.5 |
| 20260903075502 | 66 | 92 | 0.0 | 1.0 | 0.00 | 0.00 | 0.00 | 67 | 1027.5 |
| 20260903075003 | 66 | 70 | 0.0 | 2.0 | 0.00 | 0.00 | 0.00 | 67 | 1027.5 |
| 20260903074506 | 66 | 84 | 0.0 | 2.0 | 0.00 | 0.00 | 0.00 | 65 | 1027.4 |
| 20260903074003 | 66 | 101 | 1.0 | 2.0 | 0.00 | 0.00 | 0.00 | 68 | 1027.4 |
| 20260903073504 | 65 | 91 | 0.0 | 2.0 | 0.00 | 0.00 | 0.00 | 63 | 1027.3 |
| 20260903073016 | 66 | 124 | 0.0 | 2.0 | 0.00 | 0.00 | 0.00 | 63 | 1027.3 |
| 20260903072505 | 65 | 92 | 0.0 | 1.0 | 0.00 | 0.00 | 0.00 | 64 | 1027.2 |
| 20260903072005 | 65 | 101 | 0.0 | 1.0 | 0.00 | 0.00 | 0.00 | 62 | 1027.1 |
| 20260903071507 | 65 | 76 | 0.0 | 2.0 | 0.00 | 0.00 | 0.00 | 63 | 1027.2 |
| 20260903071003 | 65 | 79 | 0.0 | 2.0 | 0.00 | 0.00 | 0.00 | 63 | 1027.2 |
| 20260903070504 | 65 | 68 | 0.0 | 1.0 | 0.00 | 0.00 | 0.00 | 59 | 1027.1 |
| 20260903070006 | 64 | 68 | 0.0 | 1.0 | 0.00 | 0.00 | 0.00 | 61 | 1027.1 |
| 20260903065506 | 64 | 96 | 0.0 | 1.0 | 0.00 | 0.00 | 0.00 | 59 | 1027.0 |
| 20260903065002 | 63 | 96 | 0.0 | 2.0 | 0.00 | 0.00 | 0.00 | 62 | 1027.0 |
| 20260903064507 | 62 | 98 | 0.0 | 2.0 | 0.00 | 0.00 | 0.00 | 63 | 1027.0 |
| 20260903064004 | 62 | 90 | 0.0 | 2.0 | 0.00 | 0.00 | 0.00 | 62 | 1026.9 |
| 20260903063504 | 62 | 93 | 0.0 | 2.0 | 0.00 | 0.00 | 0.00 | 62 | 1026.8 |
| 20260903063007 | 62 | 115 | 0.0 | 1.0 | 0.00 | 0.00 | 0.00 | 65 | 1026.8 |
| 20260903062504 | 62 | 93 | 0.0 | 1.0 | 0.00 | 0.00 | 0.00 | 66 | 1026.8 |
| 20260903062003 | 62 | 91 | 0.0 | 1.0 | 0.00 | 0.00 | 0.00 | 66 | 1026.9 |
| 20260903061508 | 61 | 91 | 0.0 | 1.0 | 0.00 | 0.00 | 0.00 | 69 | 1026.9 |
| 20260903061008 | 61 | 91 | 0.0 | 1.0 | 0.00 | 0.00 | 0.00 | 68 | 1026.8 |
| 20260903060503 | 60 | 122 | 0.0 | 2.0 | 0.00 | 0.00 | 0.00 | 69 | 1026.7 |
| 20260903060006 | 60 | 99 | 1.0 | 2.0 | 0.00 | 0.00 | 0.00 | 69 | 1026.7 |
| 20260903055503 | 60 | 105 | 0.0 | 2.0 | 0.00 | 0.00 | 0.00 | 70 | 1026.6 |
| 20260903055002 | 59 | 109 | 0.0 | 2.0 | 0.00 | 0.00 | 0.00 | 72 | 1026.6 |
| 20260903054509 | 58 | 119 | 0.0 | 1.0 | 0.00 | 0.00 | 0.00 | 74 | 1026.5 |
| 20260903054009 | 57 | 116 | 0.0 | 1.0 | 0.00 | 0.00 | 0.00 | 75 | 1026.4 |
| 20260903053509 | 57 | 108 | 0.0 | 1.0 | 0.00 | 0.00 | 0.00 | 76 | 1026.5 |
| 20260903053012 | 56 | 111 | 0.0 | 0.0 | 0.00 | 0.00 | 0.00 | 77 | 1026.5 |
| 20260903052504 | 56 | 111 | 0.0 | 1.0 | 0.00 | 0.00 | 0.00 | 76 | 1026.5 |
| 20260903052004 | 57 | 111 | 0.0 | 1.0 | 0.00 | 0.00 | 0.00 | 76 | 1026.5 |
| 20260903051509 | 57 | 112 | 0.0 | 1.0 | 0.00 | 0.00 | 0.00 | 75 | 1026.4 |
| 20260903051002 | 57 | 113 | 0.0 | 1.0 | 0.00 | 0.00 | 0.00 | 75 | 1026.3 |
| 20260903050507 | 57 | 89 | 0.0 | 1.0 | 0.00 | 0.00 | 0.00 | 75 | 1026.4 |
| 20260903050017 | 57 | 349 | 0.0 | 1.0 | 0.00 | 0.00 | 0.00 | 74 | 1026.4 |
| 20260903045508 | 57 | 341 | 0.0 | 1.0 | 0.00 | 0.00 | 0.00 | 74 | 1026.3 |
| 20260903045012 | 58 | 87 | 0.0 | 3.0 | 0.00 | 0.00 | 0.00 | 73 | 1026.2 |
| 20260903044510 | 58 | 86 | 0.0 | 3.0 | 0.00 | 0.00 | 0.00 | 73 | 1026.2 |
| 20260903044006 | 58 | 86 | 0.0 | 3.0 | 0.00 | 0.00 | 0.00 | 73 | 1026.1 |
| 20260903043507 | 58 | 98 | 0.0 | 5.0 | 0.00 | 0.00 | 0.00 | 73 | 1026.1 |
| 20260903043018 | 59 | 94 | 2.0 | 5.0 | 0.00 | 0.00 | 0.00 | 73 | 1026.1 |
| 20260903042506 | 58 | 72 | 3.0 | 5.0 | 0.00 | 0.00 | 0.00 | 74 | 1026.0 |
| 20260903042008 | 57 | 86 | 0.0 | 2.0 | 0.00 | 0.00 | 0.00 | 74 | 1026.1 |
| 20260903041512 | 58 | 116 | 0.0 | 2.0 | 0.00 | 0.00 | 0.00 | 74 | 1026.1 |
| 20260903041010 | 58 | 124 | 0.0 | 1.0 | 0.00 | 0.00 | 0.00 | 74 | 1026.1 |
| 20260903040509 | 58 | 115 | 0.0 | 1.0 | 0.00 | 0.00 | 0.00 | 74 | 1026.1 |
| 20260903040015 | 57 | 89 | 0.0 | 1.0 | 0.00 | 0.00 | 0.00 | 75 | 1026.2 |
| 20260903035510 | 57 | 94 | 0.0 | 1.0 | 0.00 | 0.00 | 0.00 | 75 | 1026.2 |
| 20260903035007 | 57 | 95 | 0.0 | 1.0 | 0.00 | 0.00 | 0.00 | 75 | 1026.2 |
| 20260903034513 | 57 | 96 | 0.0 | 2.0 | 0.00 | 0.00 | 0.00 | 75 | 1026.2 |
| 20260903034007 | 57 | 97 | 0.0 | 2.0 | 0.00 | 0.00 | 0.00 | 76 | 1026.2 |
| 20260903033509 | 56 | 109 | 0.0 | 0.0 | 0.00 | 0.00 | 0.00 | 77 | 1026.2 |
| 20260903033018 | 56 | 109 | 0.0 | 0.0 | 0.00 | 0.00 | 0.00 | 77 | 1026.3 |
| 20260903032511 | 56 | 109 | 0.0 | 0.0 | 0.00 | 0.00 | 0.00 | 77 | 1026.2 |
| 20260903032010 | 56 | 109 | 0.0 | 0.0 | 0.00 | 0.00 | 0.00 | 77 | 1026.3 |
| 20260903031515 | 56 | 109 | 0.0 | 0.0 | 0.00 | 0.00 | 0.00 | 77 | 1026.3 |
| 20260903031011 | 56 | 109 | 0.0 | 0.0 | 0.00 | 0.00 | 0.00 | 77 | 1026.3 |
| 20260903030508 | 56 | 109 | 0.0 | 0.0 | 0.00 | 0.00 | 0.00 | 76 | 1026.4 |
| 20260903030020 | 57 | 109 | 0.0 | 0.0 | 0.00 | 0.00 | 0.00 | 75 | 1026.4 |
| 20260903025512 | 57 | 109 | 0.0 | 1.0 | 0.00 | 0.00 | 0.00 | 74 | 1026.4 |
| 20260903025011 | 58 | 109 | 0.0 | 1.0 | 0.00 | 0.00 | 0.00 | 74 | 1026.3 |
| 20260903024515 | 57 | 109 | 0.0 | 1.0 | 0.00 | 0.00 | 0.00 | 75 | 1026.3 |
| 20260903024011 | 57 | 116 | 0.0 | 0.0 | 0.00 | 0.00 | 0.00 | 75 | 1026.3 |
| 20260903023508 | 57 | 116 | 0.0 | 0.0 | 0.00 | 0.00 | 0.00 | 75 | 1026.3 |
| 20260903023016 | 57 | 116 | 0.0 | 1.0 | 0.00 | 0.00 | 0.00 | 75 | 1026.4 |
| 20260903022510 | 57 | 116 | 0.0 | 1.0 | 0.00 | 0.00 | 0.00 | 74 | 1026.4 |
| 20260903022013 | 58 | 115 | 0.0 | 1.0 | 0.00 | 0.00 | 0.00 | 73 | 1026.4 |
| 20260903021521 | 58 | 116 | 0.0 | 1.0 | 0.00 | 0.00 | 0.00 | 73 | 1026.4 |
| 20260903021012 | 58 | 116 | 0.0 | 1.0 | 0.00 | 0.00 | 0.00 | 73 | 1026.4 |
| 20260903020511 | 59 | 116 | 0.0 | 1.0 | 0.00 | 0.00 | 0.00 | 72 | 1026.4 |
| 20260903020026 | 59 | 122 | 0.0 | 1.0 | 0.00 | 0.00 | 0.00 | 72 | 1026.4 |
| 20260903015510 | 59 | 122 | 0.0 | 1.0 | 0.00 | 0.00 | 0.00 | 72 | 1026.4 |
| 20260903015011 | 59 | 113 | 0.0 | 1.0 | 0.00 | 0.00 | 0.00 | 71 | 1026.4 |
| 20260903014518 | 59 | 113 | 0.0 | 1.0 | 0.00 | 0.00 | 0.00 | 71 | 1026.4 |
| 20260903014010 | 59 | 113 | 0.0 | 1.0 | 0.00 | 0.00 | 0.00 | 70 | 1026.5 |
| 20260903013516 | 60 | 113 | 0.0 | 2.0 | 0.00 | 0.00 | 0.00 | 70 | 1026.5 |
| 20260903013018 | 60 | 113 | 0.0 | 3.0 | 0.00 | 0.00 | 0.00 | 70 | 1026.5 |
| 20260903012510 | 60 | 129 | 0.0 | 3.0 | 0.00 | 0.00 | 0.00 | 69 | 1026.6 |
| 20260903012008 | 60 | 69 | 1.0 | 3.0 | 0.00 | 0.00 | 0.00 | 69 | 1026.6 |
| 20260903011515 | 60 | 101 | 0.0 | 2.0 | 0.00 | 0.00 | 0.00 | 69 | 1026.6 |
| 20260903011009 | 61 | 99 | 0.0 | 2.0 | 0.00 | 0.00 | 0.00 | 68 | 1026.5 |
| 20260903010514 | 61 | 94 | 0.0 | 3.0 | 0.00 | 0.00 | 0.00 | 68 | 1026.5 |
| 20260903010027 | 60 | 66 | 1.0 | 3.0 | 0.00 | 0.00 | 0.00 | 69 | 1026.6 |
| 20260903005503 | 60 | 89 | 0.0 | 2.0 | 0.00 | 0.00 | 0.00 | 70 | 1026.7 |
| 20260903005005 | 60 | 145 | 0.0 | 2.0 | 0.00 | 0.00 | 0.00 | 70 | 1026.7 |
| 20260903004507 | 60 | 231 | 0.0 | 1.0 | 0.00 | 0.00 | 0.00 | 70 | 1026.7 |
| 20260903004003 | 60 | 88 | 0.0 | 1.0 | 0.00 | 0.00 | 0.00 | 70 | 1026.6 |
| 20260903003502 | 60 | 134 | 0.0 | 1.0 | 0.00 | 0.00 | 0.00 | 70 | 1026.7 |
| 20260903003008 | 60 | 130 | 0.0 | 1.0 | 0.00 | 0.00 | 0.00 | 70 | 1026.6 |
| 20260903002505 | 60 | 105 | 0.0 | 1.0 | 0.00 | 0.00 | 0.00 | 69 | 1026.6 |
| 20260903002007 | 60 | 110 | 0.0 | 1.0 | 0.00 | 0.00 | 0.00 | 70 | 1026.6 |
| 20260903001511 | 60 | 136 | 0.0 | 1.0 | 0.00 | 0.00 | 0.00 | 70 | 1026.7 |
| 20260903001008 | 60 | 155 | 0.0 | 3.0 | 0.00 | 0.00 | 0.00 | 69 | 1026.7 |
| 20260903000514 | 60 | 110 | 1.0 | 3.0 | 0.00 | 0.00 | 0.00 | 69 | 1026.7 |
| 20260903000035 | 60 | 119 | 0.0 | 3.0 | 0.00 | 0.00 | 0.00 | 69 | 1026.7 |
| 20260902235512 | 60 | 86 | 0.0 | 2.0 | 0.00 | 0.00 | 0.00 | 70 | 1026.7 |
| 20260902235012 | 60 | 89 | 0.0 | 2.0 | 0.00 | 0.00 | 0.00 | 70 | 1026.8 |
| 20260902234524 | 60 | 95 | 0.0 | 1.0 | 0.00 | 0.00 | 0.00 | 70 | 1026.8 |
| 20260902234012 | 60 | 110 | 0.0 | 1.0 | 0.00 | 0.00 | 0.00 | 70 | 1026.8 |
| 20260902233502 | 60 | 115 | 0.0 | 2.0 | 0.00 | 0.00 | 0.00 | 69 | 1026.8 |
| 20260902233003 | 60 | 117 | 0.0 | 2.0 | 0.00 | 0.00 | 0.00 | 69 | 1026.8 |
| 20260902232505 | 60 | 126 | 0.0 | 2.0 | 0.00 | 0.00 | 0.00 | 70 | 1026.8 |
| 20260902232003 | 60 | 115 | 0.0 | 1.0 | 0.00 | 0.00 | 0.00 | 69 | 1026.9 |
| 20260902231509 | 60 | 109 | 0.0 | 1.0 | 0.00 | 0.00 | 0.00 | 69 | 1026.9 |
| 20260902231007 | 60 | 105 | 0.0 | 1.0 | 0.00 | 0.00 | 0.00 | 69 | 1026.9 |
| 20260902230511 | 61 | 101 | 0.0 | 1.0 | 0.00 | 0.00 | 0.00 | 69 | 1026.8 |
| 20260902230017 | 61 | 101 | 0.0 | 1.0 | 0.00 | 0.00 | 0.00 | 69 | 1026.9 |
| 20260902225510 | 61 | 41 | 0.0 | 1.0 | 0.00 | 0.00 | 0.00 | 68 | 1026.8 |
| 20260902225015 | 61 | 41 | 0.0 | 1.0 | 0.00 | 0.00 | 0.00 | 69 | 1026.9 |
| 20260902224522 | 61 | 309 | 0.0 | 0.0 | 0.00 | 0.00 | 0.00 | 68 | 1026.9 |
| 20260902224014 | 61 | 309 | 0.0 | 0.0 | 0.00 | 0.00 | 0.00 | 68 | 1026.9 |
| 20260902223513 | 61 | 309 | 0.0 | 0.0 | 0.00 | 0.00 | 0.00 | 67 | 1026.9 |
| 20260902223029 | 62 | 309 | 0.0 | 1.0 | 0.00 | 0.00 | 0.00 | 67 | 1026.9 |
| 20260902222513 | 62 | 299 | 0.0 | 1.0 | 0.00 | 0.00 | 0.00 | 66 | 1026.9 |
| 20260902222014 | 62 | 297 | 0.0 | 1.0 | 0.00 | 0.00 | 0.00 | 66 | 1026.9 |
| 20260902221507 | 62 | 298 | 0.0 | 1.0 | 0.00 | 0.00 | 0.00 | 67 | 1026.9 |
| 20260902221003 | 61 | 82 | 0.0 | 0.0 | 0.00 | 0.00 | 0.00 | 67 | 1026.9 |
| 20260902220507 | 62 | 82 | 0.0 | 0.0 | 0.00 | 0.00 | 0.00 | 66 | 1026.9 |
| 20260902220023 | 62 | 82 | 0.0 | 1.0 | 0.00 | 0.00 | 0.00 | 66 | 1026.8 |
| 20260902215509 | 62 | 82 | 0.0 | 1.0 | 0.00 | 0.00 | 0.00 | 66 | 1026.7 |
| 20260902215010 | 62 | 82 | 0.0 | 1.0 | 0.00 | 0.00 | 0.00 | 65 | 1026.7 |
| 20260902214533 | 62 | 82 | 0.0 | 1.0 | 0.00 | 0.00 | 0.00 | 65 | 1026.7 |
| 20260902214010 | 63 | 82 | 0.0 | 1.0 | 0.00 | 0.00 | 0.00 | 64 | 1026.6 |
| 20260902213511 | 62 | 82 | 0.0 | 1.0 | 0.00 | 0.00 | 0.00 | 65 | 1026.6 |
| 20260902213020 | 62 | 82 | 0.0 | 1.0 | 0.00 | 0.00 | 0.00 | 66 | 1026.5 |
| 20260902212513 | 62 | 83 | 0.0 | 0.0 | 0.00 | 0.00 | 0.00 | 66 | 1026.4 |
| 20260902212014 | 62 | 83 | 0.0 | 0.0 | 0.00 | 0.00 | 0.00 | 66 | 1026.4 |
| 20260902211530 | 62 | 83 | 0.0 | 1.0 | 0.00 | 0.00 | 0.00 | 65 | 1026.4 |
| 20260902211018 | 62 | 83 | 0.0 | 1.0 | 0.00 | 0.00 | 0.00 | 65 | 1026.4 |
| 20260902210514 | 63 | 83 | 0.0 | 0.0 | 0.00 | 0.00 | 0.00 | 64 | 1026.5 |
| 20260902210034 | 63 | 83 | 0.0 | 1.0 | 0.00 | 0.00 | 0.00 | 64 | 1026.4 |
| 20260902205507 | 63 | 83 | 0.0 | 1.0 | 0.00 | 0.00 | 0.00 | 64 | 1026.5 |
| 20260902205005 | 63 | 82 | 0.0 | 1.0 | 0.00 | 0.00 | 0.00 | 64 | 1026.5 |
| 20260902204513 | 63 | 83 | 0.0 | 1.0 | 0.00 | 0.00 | 0.00 | 64 | 1026.4 |
| 20260902204008 | 63 | 83 | 0.0 | 1.0 | 0.00 | 0.00 | 0.00 | 63 | 1026.5 |
| 20260902203510 | 63 | 83 | 0.0 | 1.0 | 0.00 | 0.00 | 0.00 | 64 | 1026.5 |
| 20260902203018 | 64 | 84 | 0.0 | 1.0 | 0.00 | 0.00 | 0.00 | 63 | 1026.5 |
| 20260902202512 | 64 | 84 | 0.0 | 1.0 | 0.00 | 0.00 | 0.00 | 63 | 1026.4 |
| 20260902202012 | 63 | 49 | 0.0 | 1.0 | 0.00 | 0.00 | 0.00 | 63 | 1026.5 |
| 20260902201535 | 63 | 50 | 0.0 | 1.0 | 0.00 | 0.00 | 0.00 | 64 | 1026.4 |
| 20260902201014 | 63 | 276 | 0.0 | 0.0 | 0.00 | 0.00 | 0.00 | 63 | 1026.4 |
| 20260902200515 | 63 | 276 | 0.0 | 0.0 | 0.00 | 0.00 | 0.00 | 63 | 1026.4 |
| 20260902200029 | 64 | 276 | 0.0 | 1.0 | 0.00 | 0.00 | 0.00 | 63 | 1026.3 |
| 20260902195516 | 64 | 276 | 0.0 | 1.0 | 0.00 | 0.00 | 0.00 | 63 | 1026.3 |
| 20260902195019 | 64 | 276 | 0.0 | 0.0 | 0.00 | 0.00 | 0.00 | 64 | 1026.3 |
| 20260902194529 | 64 | 276 | 0.0 | 0.0 | 0.00 | 0.00 | 0.00 | 64 | 1026.3 |
| 20260902194016 | 64 | 276 | 0.0 | 0.0 | 0.00 | 0.00 | 0.00 | 63 | 1026.3 |
| 20260902193508 | 64 | 276 | 0.0 | 0.0 | 0.00 | 0.00 | 0.00 | 62 | 1026.2 |
| 20260902193012 | 65 | 276 | 0.0 | 1.0 | 0.00 | 0.00 | 0.00 | 62 | 1026.2 |
| 20260902192509 | 65 | 276 | 0.0 | 1.0 | 0.00 | 0.00 | 0.00 | 62 | 1026.2 |
| 20260902192010 | 65 | 276 | 0.0 | 1.0 | 0.00 | 0.00 | 0.00 | 64 | 1026.1 |
| 20260902191524 | 65 | 276 | 0.0 | 1.0 | 0.00 | 0.00 | 0.00 | 64 | 1026.1 |
| 20260902191011 | 65 | 274 | 0.0 | 1.0 | 0.00 | 0.00 | 0.00 | 64 | 1026.0 |
| 20260902190512 | 65 | 266 | 0.0 | 1.0 | 0.00 | 0.00 | 0.00 | 64 | 1025.9 |
| 20260902190027 | 65 | 266 | 0.0 | 1.0 | 0.00 | 0.00 | 0.00 | 64 | 1025.9 |
| 20260902185515 | 65 | 266 | 0.0 | 1.0 | 0.00 | 0.00 | 0.00 | 64 | 1025.8 |
| 20260902185006 | 65 | 275 | 0.0 | 1.0 | 0.00 | 0.00 | 0.00 | 64 | 1025.8 |
| 20260902184509 | 65 | 275 | 0.0 | 1.0 | 0.00 | 0.00 | 0.00 | 64 | 1025.7 |
| 20260902184008 | 65 | 276 | 0.0 | 1.0 | 0.00 | 0.00 | 0.00 | 64 | 1025.8 |
| 20260902183505 | 65 | 276 | 0.0 | 1.0 | 0.00 | 0.00 | 0.00 | 63 | 1025.8 |
| 20260902183016 | 66 | 266 | 0.0 | 1.0 | 0.00 | 0.00 | 0.00 | 63 | 1025.7 |
| 20260902182508 | 66 | 275 | 0.0 | 1.0 | 0.00 | 0.00 | 0.00 | 62 | 1025.6 |
| 20260902182011 | 66 | 274 | 0.0 | 1.0 | 0.00 | 0.00 | 0.00 | 62 | 1025.6 |
| 20260902181517 | 67 | 275 | 0.0 | 1.0 | 0.00 | 0.00 | 0.00 | 61 | 1025.7 |
| 20260902181009 | 67 | 280 | 0.0 | 1.0 | 0.00 | 0.00 | 0.00 | 60 | 1025.6 |
| 20260902180511 | 68 | 278 | 0.0 | 1.0 | 0.00 | 0.00 | 0.00 | 59 | 1025.6 |
| 20260902180032 | 68 | 274 | 0.0 | 1.0 | 0.00 | 0.00 | 0.00 | 59 | 1025.5 |
| 20260902175512 | 68 | 272 | 0.0 | 1.0 | 0.00 | 0.00 | 0.00 | 59 | 1025.5 |
| 20260902175017 | 69 | 276 | 0.0 | 1.0 | 0.00 | 0.00 | 0.00 | 58 | 1025.5 |
| 20260902174543 | 69 | 292 | 0.0 | 1.0 | 0.00 | 0.00 | 0.00 | 57 | 1025.5 |
| 20260902174015 | 70 | 292 | 0.0 | 2.0 | 0.00 | 0.00 | 0.00 | 57 | 1025.5 |
| 20260902173516 | 70 | 289 | 1.0 | 2.0 | 0.00 | 0.00 | 0.00 | 55 | 1025.3 |
| 20260902173018 | 71 | 299 | 1.0 | 2.0 | 0.00 | 0.00 | 0.00 | 55 | 1025.4 |
| 20260902172506 | 71 | 302 | 1.0 | 3.0 | 0.00 | 0.00 | 0.00 | 54 | 1025.4 |
| 20260902172009 | 72 | 292 | 1.0 | 3.0 | 0.00 | 0.00 | 0.00 | 53 | 1025.3 |
| 20260902171513 | 72 | 268 | 0.0 | 3.0 | 0.00 | 0.00 | 0.00 | 51 | 1025.3 |
| 20260902171007 | 72 | 278 | 1.0 | 3.0 | 0.00 | 0.00 | 0.00 | 51 | 1025.3 |
| 20260902170509 | 72 | 277 | 1.0 | 3.0 | 0.00 | 0.00 | 0.00 | 50 | 1025.3 |
| 20260902170018 | 73 | 270 | 1.0 | 3.0 | 0.00 | 0.00 | 0.00 | 51 | 1025.2 |
| 20260902165515 | 72 | 263 | 1.0 | 3.0 | 0.00 | 0.00 | 0.00 | 48 | 1025.3 |
| 20260902165012 | 73 | 296 | 2.0 | 3.0 | 0.00 | 0.00 | 0.00 | 49 | 1025.3 |
| 20260902164526 | 73 | 297 | 1.0 | 4.0 | 0.00 | 0.00 | 0.00 | 50 | 1025.1 |
| 20260902164015 | 73 | 306 | 1.0 | 4.0 | 0.00 | 0.00 | 0.00 | 49 | 1025.3 |
| 20260902163515 | 73 | 283 | 0.0 | 4.0 | 0.00 | 0.00 | 0.00 | 49 | 1025.3 |
| 20260902163028 | 73 | 297 | 1.0 | 4.0 | 0.00 | 0.00 | 0.00 | 49 | 1025.2 |
| 20260902162517 | 72 | 288 | 2.0 | 4.0 | 0.00 | 0.00 | 0.00 | 47 | 1025.3 |
| 20260902162015 | 73 | 307 | 2.0 | 5.0 | 0.00 | 0.00 | 0.00 | 49 | 1025.4 |
| 20260902161530 | 73 | 282 | 2.0 | 5.0 | 0.00 | 0.00 | 0.00 | 48 | 1025.4 |
| 20260902161009 | 74 | 272 | 1.0 | 3.0 | 0.00 | 0.00 | 0.00 | 45 | 1025.5 |
| 20260902160508 | 74 | 314 | 1.0 | 3.0 | 0.00 | 0.00 | 0.00 | 43 | 1025.5 |
| 20260902160025 | 73 | 309 | 1.0 | 3.0 | 0.00 | 0.00 | 0.00 | 43 | 1025.6 |
| 20260902155508 | 73 | 301 | 0.0 | 5.0 | 0.00 | 0.00 | 0.00 | 45 | 1025.6 |
| 20260902155012 | 73 | 292 | 2.0 | 5.0 | 0.00 | 0.00 | 0.00 | 44 | 1025.5 |
| 20260902154531 | 74 | 292 | 1.0 | 3.0 | 0.00 | 0.00 | 0.00 | 44 | 1025.5 |
| 20260902154015 | 74 | 295 | 1.0 | 4.0 | 0.00 | 0.00 | 0.00 | 43 | 1025.5 |
| 20260902153511 | 74 | 269 | 1.0 | 4.0 | 0.00 | 0.00 | 0.00 | 44 | 1025.5 |
| 20260902153036 | 73 | 341 | 0.0 | 5.0 | 0.00 | 0.00 | 0.00 | 45 | 1025.5 |
| 20260902152516 | 73 | 326 | 3.0 | 5.0 | 0.00 | 0.00 | 0.00 | 46 | 1025.5 |
| 20260902152015 | 74 | 303 | 1.0 | 5.0 | 0.00 | 0.00 | 0.00 | 45 | 1025.5 |
| 20260902151528 | 73 | 307 | 0.0 | 5.0 | 0.00 | 0.00 | 0.00 | 45 | 1025.5 |
| 20260902151013 | 73 | 275 | 1.0 | 5.0 | 0.00 | 0.00 | 0.00 | 44 | 1025.5 |
| 20260902150516 | 73 | 254 | 2.0 | 5.0 | 0.00 | 0.00 | 0.00 | 47 | 1025.5 |
| 20260902150031 | 73 | 117 | 0.0 | 5.0 | 0.00 | 0.00 | 0.00 | 47 | 1025.5 |
| 20260902145518 | 74 | 292 | 2.0 | 5.0 | 0.00 | 0.00 | 0.00 | 43 | 1025.6 |
| 20260902145009 | 74 | 124 | 0.0 | 6.0 | 0.00 | 0.00 | 0.00 | 46 | 1025.5 |
| 20260902144517 | 73 | 307 | 1.0 | 6.0 | 0.00 | 0.00 | 0.00 | 44 | 1025.5 |
| 20260902144011 | 73 | 279 | 3.0 | 6.0 | 0.00 | 0.00 | 0.00 | 46 | 1025.6 |